Content
SEND FEEDBACK

Daily
Averages
Monthly
Summary
Philippines

DAVAO, PHILIPPINES


Home > Asia > Philippines
Elevation: 59 feet     Latitude: 07 07N     Longitude: 125 39E

WEATHER
 
SELECT A DAY
Number of Records: 100,759;   Date Range: 2/27/97 - 10/29/14
 
SHARE

PRINT THIS DATA

[ ← Previous Day ]
WEATHER ALMANAC - FEBRUARY 13, 2013
[ Next Day → ]
[ °C ]   °F
Weather ElementAverageHighLow
Temperature83 °F90 °F (2:00 pm)75 °F (5:00 am)
Dewpoint73.9 °F77 °F (2:00 pm)69.8 °F (7:00 pm)
Humidity72.9 %94 % (5:00 am)49 % (5:00 pm)
Barometer29.83 in29.89 in (9:00 am)29.76 in (5:00 pm)
Wind Speed5.2 mph13.4 mph (11:00 pm)
Wind Gust18.4 mph (11:00 am)
Weather ElementAverage
Visibility7.6 mi
Wind DirectionESE (96.1 °)

Weather ElementTotal
Precipitation---
Cooling Degree Days17.5 (Base 65)
Growing Degree Days32.5 (Base 50)
Averaged from 23 records on February 13, 2013
WEATHER CONDITIONS BREAKOUT
WIND DIRECTION BREAKOUT
WEATHER BY HOUR - FEBRUARY 13, 2013
[ °C ]   °F
Local TimeTemperatureDewpointHumidityBarometerVisibilityWind DirectionWind SpeedGust SpeedPrecipitationEventsConditions
5:00 AM75.0 °F73.0 °F90 %29.81 in11.0 miNorth2.2 mphHaze
5:00 AM75.2 °F73.4 °F94 %29.83 in6.2 miNorth (360°)2.3 mphPartly Cloudy
6:00 AM75.2 °F73.4 °F94 %29.83 in6.2 miNorth (360°)2.3 mphMostly Cloudy
7:00 AM77.0 °F73.4 °F89 %29.83 in6.2 miNNE (20°)2.3 mphScattered Clouds
8:00 AM78.8 °F73.4 °F83 %29.86 in6.2 miNNE (20°)4.6 mphScattered Clouds
8:00 AM79.0 °F74.0 °F79 %29.85 in11.0 miNNE (20°)4.5 mphHaze
9:00 AM78.8 °F73.4 °F83 %29.89 in6.2 miNNE (20°)6.9 mphScattered Clouds
10:00 AM84.2 °F75.2 °F74 %29.89 in6.2 miNNE (20°)6.9 mph16.1 mphScattered Clouds
11:00 AM83.0 °F75.0 °F71 %29.88 in11.0 miNNE (20°)6.7 mphHaze
11:00 AM82.4 °F75.2 °F79 %29.89 in6.2 miNNE (20°)6.9 mph18.4 mphScattered Clouds
12:00 PM84.2 °F75.2 °F74 %29.86 in6.2 miNNE (20°)6.9 mphScattered Clouds
1:00 PM86.0 °F75.2 °F70 %29.83 in6.2 miNNE (20°)6.9 mphScattered Clouds
2:00 PM90.0 °F77.0 °F57 %29.78 in11.0 miNNE (20°)4.5 mphHaze
2:00 PM89.6 °F77.0 °F66 %29.80 in6.2 miNNE (20°)4.6 mphScattered Clouds
3:00 PM89.6 °F75.2 °F62 %29.77 in6.2 miENE (70°)4.6 mphScattered Clouds
4:00 PM89.6 °F77.0 °F66 %29.77 in6.2 miNorth (360°)4.6 mphScattered Clouds
5:00 PM87.8 °F71.6 °F58 %29.77 in6.2 miNE (40°)4.6 mphScattered Clouds
5:00 PM88.0 °F72.0 °F49 %29.76 in11.0 miNE (40°)4.5 mphHaze
6:00 PM86.0 °F73.4 °F66 %29.80 in6.2 miNE (40°)2.3 mphScattered Clouds
7:00 PM84.2 °F69.8 °F62 %29.80 in6.2 miNorth (360°)4.6 mphScattered Clouds
8:00 PM83.0 °F72.0 °F63 %29.82 in11.0 miNorth6.7 mphHaze
8:00 PM82.4 °F71.6 °F70 %29.83 in6.2 miNorth (360°)6.9 mphScattered Clouds
11:00 PM80.0 °F74.0 °F78 %29.86 in9.0 miNorth13.4 mphHaze
Hourly data recorded from RPMD, located miles away from Davao, Philippines







STORIES FROM OUR PARTNERS